TimePDT,TemperatureF,Dew PointF,Humidity,Sea Level PressureIn,VisibilityMPH,Wind Direction,Wind SpeedMPH,Gust SpeedMPH,PrecipitationIn,Events,Conditions,WindDirDegrees,DateUTC
12:56 AM,46.9,44.1,90,30.01,10.0,Calm,Calm,-,N/A,,Clear,0,2012-10-10 07:56:00
1:56 AM,44.1,41.0,89,30.02,10.0,Calm,Calm,-,N/A,,Clear,0,2012-10-10 08:56:00
2:56 AM,42.1,41.0,96,30.02,10.0,Calm,Calm,-,N/A,,Clear,0,2012-10-10 09:56:00
3:56 AM,44.1,42.1,93,30.01,10.0,Calm,Calm,-,N/A,,Clear,0,2012-10-10 10:56:00
4:56 AM,42.1,39.9,92,30.01,10.0,Calm,Calm,-,N/A,,Clear,0,2012-10-10 11:56:00
5:56 AM,42.1,39.9,92,30.01,10.0,Calm,Calm,-,N/A,,Clear,0,2012-10-10 12:56:00
6:56 AM,42.1,39.9,92,30.03,10.0,Calm,Calm,-,N/A,,Clear,0,2012-10-10 13:56:00
7:56 AM,39.9,39.0,97,30.03,9.0,Calm,Calm,-,N/A,,Clear,0,2012-10-10 14:56:00
8:56 AM,46.9,43.0,86,30.04,10.0,Calm,Calm,-,N/A,Fog,Patches of Fog,0,2012-10-10 15:56:00
9:56 AM,54.0,46.9,77,30.04,10.0,Calm,Calm,-,N/A,Fog,Patches of Fog,0,2012-10-10 16:56:00
10:56 AM,57.9,46.9,67,30.02,10.0,Calm,Calm,-,N/A,,Clear,0,2012-10-10 17:56:00
11:56 AM,60.1,46.9,62,30.00,10.0,Calm,Calm,-,N/A,,Clear,0,2012-10-10 18:56:00
12:56 PM,66.0,46.9,50,29.97,10.0,North,5.8,-,N/A,,Clear,350,2012-10-10 19:56:00
1:56 PM,68.0,46.9,47,29.95,10.0,NNW,4.6,-,N/A,,Clear,330,2012-10-10 20:56:00
2:56 PM,69.1,46.9,45,29.93,10.0,Variable,3.5,-,N/A,,Clear,0,2012-10-10 21:56:00
3:56 PM,71.1,46.9,42,29.91,10.0,Calm,Calm,-,N/A,,Clear,0,2012-10-10 22:56:00
4:56 PM,71.1,46.0,41,29.90,10.0,North,4.6,-,N/A,,Clear,360,2012-10-10 23:56:00
5:56 PM,68.0,46.9,47,29.89,10.0,NE,5.8,-,N/A,,Clear,40,2012-10-11 00:56:00
6:56 PM,63.0,46.9,56,29.90,10.0,NNW,9.2,-,N/A,,Clear,340,2012-10-11 01:56:00
7:56 PM,57.0,46.9,69,29.91,10.0,Calm,Calm,-,N/A,,Clear,0,2012-10-11 02:56:00
8:56 PM,52.0,46.0,80,29.92,10.0,Calm,Calm,-,N/A,,Clear,0,2012-10-11 03:56:00
9:56 PM,51.1,46.0,83,29.94,10.0,Calm,Calm,-,N/A,,Clear,0,2012-10-11 04:56:00
11:56 PM,52.0,48.0,86,29.94,10.0,NW,3.5,-,N/A,,Clear,320,2012-10-11 06:56:00